This demonstration page uses our WeatherBlox Daily Observations layout. Learn more.

Left ArrowRight Arrow

Hourly Observations for September 22, 2019

Temp ( °F °C ) Dew Point ( °F °C ) Humidity (%) Winds ( mph kmh ) Pressure ( in mb ) Visibility ( mi km ) Precip ( " mm )
12:51 am 00:51 Mostly Clear 69 20.6 36 2.2 30 30 Calm 29.83 1010 10 16 0.00 0.00
1:51 am 01:51 Mostly Clear 67 19.4 36 2.2 32 32 Calm 29.85 1011 10 16 0.00 0.00
2:51 am 02:51 Clear 65 18.3 35 1.7 33 33 Calm 29.85 1011 10 16 0.00 0.00
3:51 am 03:51 Clear 63 17.2 36 2.2 37 37 Calm 29.87 1011 10 16 0.00 0.00
4:51 am 04:51 Clear 61 16.1 37 2.8 41 41 ESE 5 7 29.89 1012 10 16 0.00 0.00
5:51 am 05:51 Clear 59 15 36 2.2 42 42 ESE 3 6 29.91 1013 10 16 0.00 0.00
6:51 am 06:51 Sunny 63 17.2 38 3.3 40 40 Calm 29.92 1013 10 16 0.00 0.00
7:51 am 07:51 Sunny 72 22.2 36 2.2 27 27 SE 7 11 29.93 1014 10 16 0.00 0.00
8:51 am 08:51 Sunny 78 25.6 35 1.7 21 21 SE 10 17 29.94 1014 10 16 0.00 0.00
9:51 am 09:51 Sunny 82 27.8 36 2.2 19 19 VRB 7 11 29.94 1014 10 16 0.00 0.00
10:51 am 10:51 Sunny 84 28.9 40 4.4 21 21 SSE 5 7 29.93 1013 10 16 0.00 0.00
11:51 am 11:51 Sunny 85 29.4 41 5 21 21 Calm 29.92 1013 10 16 0.00 0.00
12:51 pm 12:51 Sunny 89 31.7 42 5.6 19 19 VRB 3 6 29.88 1012 10 16 0.00 0.00
1:51 pm 13:51 Sunny 90 32.2 43 6.1 19 19 NNW 5 7 29.85 1011 10 16 0.00 0.00
2:51 pm 14:51 Sunny 92 33.3 44 6.7 19 19 VRB 5 7 29.83 1010 10 16 0.00 0.00
3:51 pm 15:51 Sunny 92 33.3 44 6.7 19 19 undefined N/A 29.81 1010 10 16 0.00 0.00
4:51 pm 16:51 Sunny 92 33.3 45 7.2 20 20 VRB 5 7 29.81 1010 10 16 0.00 0.00
5:51 pm 17:51 Sunny 89 31.7 45 7.2 22 22 WNW 7 11 29.82 1010 10 16 0.00 0.00
6:51 pm 18:51 Cloudy 87 30.6 46 7.8 24 24 W 5 7 29.83 1010 10 16 0.00 0.00
7:51 pm 19:51 Mostly Cloudy 86 30 46 7.8 25 25 WNW 5 7 29.83 1010 10 16 0.00 0.00
8:51 pm 20:51 Cloudy 85 29.4 53 11.7 33 33 SW 5 7 29.84 1011 10 16 0.00 0.00
9:51 pm 21:51 Mostly Cloudy 82 27.8 56 13.3 41 41 E 5 7 29.84 1011 10 16 0.00 0.00
10:51 pm 22:51 Mostly Cloudy 82 27.8 60 15.6 47 47 S 10 17 29.84 1011 10 16 0.00 0.00
11:51 pm 23:51 Cloudy 82 27.8 60 15.6 47 47 ENE 6 9 29.84 1011 10 16 0.00 0.00

Powered by AerisWeather